Weather History for KEZM - May, 2013

Change the Weather History Date:

Sunday, May 5, 2013

  Actual Average Record
Temperature  
Mean Temperature 65 °F -  
Max Temperature 75 °F 81 °F 92 °F (2014)
Min Temperature 55 °F 53 °F 52 °F (2015)
Growing Degree Days 15 (Base 50)    
Moisture  
Dew Point 52 °F    
Average Humidity 68    
Maximum Humidity 96    
Minimum Humidity 31    
Precipitation  
Precipitation 0.00 in - - ()
Sea Level Pressure  
Sea Level Pressure 29.84 in    
Wind  
Wind Speed 6 mph (West)    
Max Wind Speed 16 mph    
Max Gust Speed 24 mph    
Visibility 9 miles    
Events Rain , Thunderstorm    
Averages and records for this station are not official NWS values.
T = Trace of Precipitation, MM = Missing Value Source: NWS Daily Summary

Daily Weather History Graph

Daily Weather History Graph

Search for Another Location

Airport or City:

Trip Planner

Search our weather history database for the weather conditions in past years. The results will help you decide how hot, cold, wet, or windy it might be!

Date:

Astronomy

May. 05, 2013 Rise Set
Actual Time 6:42 AM EDT 8:16 PM EDT
Civil Twilight 6:16 AM EDT 8:42 PM EDT
Nautical Twilight 5:44 AM EDT 9:14 PM EDT
Astronomical Twilight 5:11 AM EDT 9:47 PM EDT
Moon 3:57 AM EDT (5/5) 4:27 PM EDT (5/5)
Length of Visible Light 14h 26m
Length of Day
13h 34m
Waning Crescent, 18% of the Moon is Illuminated
May 5
Waning Crescent
May 9
New
May 18
First Quarter
May 25
Full
May 31
Last Quarter

Hourly Weather History & Observations

Time (EDT) Temp. Dew Point Humidity Pressure Visibility Wind Dir Wind Speed Gust Speed Precip Events Conditions
12:15 AM 62.2 °F 60.4 °F 94% 29.84 in 10.0 mi Calm Calm - N/A Thunderstorm Unknown
12:35 AM 62.1 °F 60.3 °F 94% 29.84 in 10.0 mi Calm Calm - N/A Rain Light Rain
12:55 AM 62.6 °F 60.8 °F 94% 29.84 in 10.0 mi East 4.6 mph - N/A   Overcast
1:15 AM 62.6 °F 60.8 °F 94% 29.82 in 10.0 mi East 4.6 mph - N/A   Light Drizzle
1:35 AM 62.6 °F 60.8 °F 94% 29.82 in 10.0 mi Calm Calm - N/A   Overcast
1:55 AM 62.6 °F 60.8 °F 94% 29.81 in 10.0 mi Calm Calm - N/A Thunderstorm Unknown
2:15 AM 62.2 °F 60.4 °F 94% 29.80 in 2.0 mi Calm Calm - N/A Rain , Thunderstorm Heavy Thunderstorms and Rain
2:35 AM 62.2 °F 60.8 °F 95% 29.79 in 5.0 mi Calm Calm - N/A Rain , Thunderstorm Rain
2:55 AM 62.1 °F 60.8 °F 96% 29.79 in 4.0 mi West 4.6 mph - N/A Rain , Thunderstorm Rain
3:15 AM 60.3 °F 58.3 °F 93% 29.79 in 7.0 mi West 6.9 mph - N/A Thunderstorm Drizzle
3:35 AM 59.9 °F 58.1 °F 94% 29.77 in 7.0 mi WNW 5.8 mph - N/A Thunderstorm Drizzle
3:55 AM 59.4 °F 57.9 °F 95% 29.78 in 10.0 mi WNW 9.2 mph - N/A Thunderstorm Unknown
4:15 AM 59.0 °F 57.2 °F 94% 29.79 in 5.0 mi WNW 5.8 mph - N/A Rain Rain
4:35 AM 58.6 °F 56.7 °F 93% 29.79 in 5.0 mi WNW 8.1 mph 16.1 mph N/A Rain Heavy Rain
4:55 AM 58.5 °F 56.7 °F 94% 29.77 in 7.0 mi WNW 4.6 mph - N/A   Heavy Drizzle
5:15 AM 58.5 °F 56.7 °F 94% 29.77 in 7.0 mi NW 4.6 mph - N/A   Light Drizzle
5:35 AM 58.5 °F 56.7 °F 94% 29.78 in 10.0 mi West 8.1 mph - N/A   Overcast
5:55 AM 57.7 °F 55.9 °F 94% 29.79 in 10.0 mi West 8.1 mph - N/A   Overcast
6:15 AM 57.2 °F 55.6 °F 94% 29.81 in 10.0 mi West 8.1 mph - N/A   Overcast
6:35 AM 57.0 °F 54.9 °F 92% 29.81 in 10.0 mi West 6.9 mph - N/A   Overcast
6:55 AM 56.8 °F 55.0 °F 94% 29.83 in 10.0 mi WNW 8.1 mph - N/A   Overcast
7:15 AM 56.5 °F 54.9 °F 94% 29.84 in 7.0 mi West 6.9 mph - N/A   Overcast
7:35 AM 55.9 °F 54.3 °F 94% 29.84 in 7.0 mi WNW 6.9 mph - N/A   Overcast
7:55 AM 55.6 °F 53.6 °F 93% 29.86 in 10.0 mi WNW 8.1 mph - N/A   Overcast
8:15 AM 55.4 °F 53.2 °F 92% 29.86 in 7.0 mi West 6.9 mph - N/A   Overcast
8:35 AM 55.0 °F 53.2 °F 94% 29.87 in 5.0 mi West 5.8 mph 9.2 mph N/A   Overcast
8:55 AM 55.4 °F 53.6 °F 94% 29.88 in 4.0 mi West 8.1 mph - N/A   Overcast
9:15 AM 56.3 °F 53.4 °F 90% 29.89 in 10.0 mi WNW 9.2 mph - N/A   Overcast
9:35 AM 58.1 °F 54.1 °F 87% 29.89 in 10.0 mi West 6.9 mph - N/A   Overcast
9:55 AM 59.4 °F 54.5 °F 84% 29.89 in 10.0 mi West 6.9 mph - N/A   Mostly Cloudy
10:15 AM 61.2 °F 54.9 °F 80% 29.89 in 10.0 mi West 10.4 mph - N/A   Scattered Clouds
10:35 AM 63.3 °F 55.2 °F 75% 29.89 in 10.0 mi West 11.5 mph 16.1 mph N/A   Scattered Clouds
10:55 AM 64.4 °F 53.6 °F 68% 29.89 in 10.0 mi WNW 9.2 mph - N/A   Clear
11:15 AM 65.8 °F 51.8 °F 60% 29.89 in 10.0 mi WNW 10.4 mph 16.1 mph N/A   Clear
11:35 AM 68.0 °F 50.9 °F 54% 29.89 in 10.0 mi WNW 12.7 mph 18.4 mph N/A   Clear
11:55 AM 68.0 °F 47.7 °F 48% 29.89 in 10.0 mi WNW 10.4 mph 17.3 mph N/A   Clear
12:15 PM 69.8 °F 45.3 °F 41% 29.89 in 10.0 mi WNW 11.5 mph 19.6 mph N/A   Clear
12:35 PM 70.9 °F 45.1 °F 40% 29.89 in 10.0 mi West 13.8 mph 20.7 mph N/A   Scattered Clouds
12:55 PM 70.9 °F 44.8 °F 39% 29.88 in 10.0 mi WNW 15.0 mph 18.4 mph N/A   Scattered Clouds
1:15 PM 71.6 °F 45.5 °F 39% 29.88 in 10.0 mi West 11.5 mph - N/A   Clear
1:35 PM 72.5 °F 46.4 °F 39% 29.87 in 10.0 mi West 8.1 mph - N/A   Clear
1:55 PM 72.9 °F 45.9 °F 38% 29.86 in 10.0 mi WNW 8.1 mph - N/A   Clear
2:15 PM 72.9 °F 45.5 °F 38% 29.86 in 10.0 mi WSW 8.1 mph - N/A   Clear
2:35 PM 73.4 °F 46.2 °F 38% 29.86 in 10.0 mi West 8.1 mph - N/A   Clear
2:55 PM 73.4 °F 46.2 °F 38% 29.86 in 10.0 mi West 10.4 mph - N/A   Clear
3:15 PM 73.4 °F 46.4 °F 38% 29.86 in 10.0 mi West 5.8 mph - N/A   Clear
3:35 PM 74.3 °F 47.1 °F 38% 29.85 in 10.0 mi West 6.9 mph 17.3 mph N/A   Scattered Clouds
3:55 PM 74.8 °F 45.9 °F 36% 29.84 in 10.0 mi WNW 5.8 mph - N/A   Clear
4:15 PM 75.7 °F 46.8 °F 36% 29.83 in 10.0 mi West 6.9 mph - N/A   Scattered Clouds
4:35 PM 75.4 °F 42.6 °F 31% 29.83 in 10.0 mi West 9.2 mph 16.1 mph N/A   Scattered Clouds
4:55 PM 73.0 °F 45.1 °F 37% 29.83 in 10.0 mi SW 5.8 mph - N/A   Mostly Cloudy
5:15 PM 73.8 °F 45.5 °F 36% 29.82 in 10.0 mi Calm Calm - N/A   Mostly Cloudy
5:35 PM 72.7 °F 45.7 °F 38% 29.82 in 10.0 mi SSW 5.8 mph - N/A   Mostly Cloudy
5:55 PM 74.1 °F 45.7 °F 36% 29.82 in 10.0 mi SW 4.6 mph - N/A   Scattered Clouds
6:15 PM 74.5 °F 46.6 °F 37% 29.81 in 10.0 mi SSW 6.9 mph - N/A   Mostly Cloudy
6:35 PM 72.7 °F 48.0 °F 42% 29.81 in 10.0 mi South 6.9 mph - N/A   Mostly Cloudy
6:55 PM 71.1 °F 49.3 °F 46% 29.81 in 10.0 mi South 9.2 mph - N/A   Overcast
7:15 PM 70.9 °F 49.6 °F 47% 29.81 in 10.0 mi South 6.9 mph - N/A   Mostly Cloudy
7:35 PM 69.4 °F 50.7 °F 51% 29.81 in 10.0 mi South 8.1 mph - N/A   Mostly Cloudy
7:55 PM 68.9 °F 50.4 °F 52% 29.81 in 10.0 mi South 9.2 mph - N/A   Mostly Cloudy
8:15 PM 67.8 °F 50.4 °F 54% 29.82 in 10.0 mi South 8.1 mph - N/A   Scattered Clouds
8:35 PM 66.7 °F 50.5 °F 56% 29.82 in 10.0 mi South 5.8 mph - N/A   Clear
8:55 PM 66.2 °F 50.9 °F 58% 29.82 in 10.0 mi South 6.9 mph - N/A   Clear
9:15 PM 64.6 °F 51.4 °F 62% 29.83 in 10.0 mi South 5.8 mph - N/A   Clear
9:35 PM 64.4 °F 51.6 °F 63% 29.83 in 10.0 mi South 6.9 mph - N/A   Clear
9:55 PM 64.0 °F 51.8 °F 64% 29.84 in 10.0 mi South 9.2 mph - N/A   Clear
10:35 PM 63.5 °F 54.0 °F 71% 29.88 in 10.0 mi WNW 16.1 mph 24.2 mph N/A   Overcast
10:55 PM 61.3 °F 53.2 °F 75% 29.89 in 10.0 mi WNW 9.2 mph 18.4 mph N/A   Overcast
11:15 PM 60.4 °F 53.2 °F 77% 29.89 in 10.0 mi WNW 9.2 mph - N/A   Overcast
11:35 PM 59.9 °F 51.6 °F 74% 29.90 in 10.0 mi WNW 11.5 mph 16.1 mph N/A   Overcast
11:55 PM 59.4 °F 47.3 °F 64% 29.91 in 10.0 mi NW 10.4 mph 17.3 mph N/A   Overcast